Location: Arrodets-la-Barthe
(43.0306°N, 0.2829°E)
Time: 06:31:04
(UTC+00:00)

Cosmos 2278 - Pass Details

Date: 03 June 2022
Orbit: 838 x 854 km, 71.1° (Epoch: 03 July)

Event Time Altitude Azimuth Distance (km) Brightness Sun altitude
Rises 21:24:42 0° 255° (WSW) 3,394 7.1 -15.8°
Reaches altitude 10° 21:28:07 10° 276° (W) 2,467 6.7 -16.1°
Maximum altitude 21:31:36 16° 314° (NW) 2,055 6.8 -16.5°
Drops below altitude 10° 21:35:07 10° 353° (N) 2,481 7.1 -16.9°
Sets 21:38:35 0° 14° (NNE) 3,424 7.5 -17.2°
